sat.trackr.live / text

‹ back to catalog

STARLINK-33785

NORAD 63516 · 2025-071Z

PAYLOAD ACTIVE UNKNOWN

§ Identity

Operator
Country
US
Launch date
2025-04-07
Launch site
AFWTR
Launch vehicle
Mass (kg)
RCS (m²)

Purposes: comms

External: N2YO · Heavens-Above · Gunter

§ Orbital elements

Epoch: 2026-05-24T21:00:13.804992Z

Period
94.01 min
Inclination
53.1585°
Eccentricity
0.0000879
Mean motion
15.31721096 rev/d
Perigee alt
470.1 km
Apogee alt
471.3 km
Semi-major
6,848.8 km
B*
8.4302e-4
RAAN
146.0516°
Arg perigee
77.2404°
Mean anomaly
282.8695°
Rev number
6,441

§ Raw data

STARLINK-337851 63516U 25071Z   26144.87515978  .00025903  00000+0  84302-3 0  99912 63516  53.1585 146.0516 0000879  77.2404 282.8695 15.31721096 64411

JSON: /api/v1/satellites/63516 · /tle

For live sub-satellite position, see the globe view (requires WebGL).

§ Visibility from observer

Set your observer location to see the next 7 days of passes ≥ 10°. The values pass through the URL so the page stays shareable.

No JS? Fill the form by hand. The geolocation button needs JavaScript.